Latest Weather Observations for Inner Beacon

IDQ60801

Issued at 9:05 am EST Wednesday 17 September 2014 (issued every 30 minutes, with the page automatically refreshed every 10 minutes)

About weather observations | Map of weather stations | Latest weather observations for QLD | Other Formats
Station Details ID: 040926 Name: INNER RECIPROCAL MARKER Lat: -27.26 Lon: 153.24 Height: 20.0 m
Data from the previous 72 hours. | See also: Recent months for locations in Queensland
Date/Time
EST
Temp
°C
App
Temp
°C
Dew
Point
Rel
Hum
%
Delta-T
°C
Wind Press
QNH
hPa
Press
MSL
hPa
Rain
since 9 am
mm
Dir
 
Spd
km/h
Gust
km/h
Spd
kts
Gust
kts
17/09:00am - - - - - NNW 2 4 1 2 - - -
17/08:30am - - - - - NNW 9 11 5 6 - - -
17/08:00am - - - - - NNW 13 15 7 8 - - -
17/07:30am - - - - - NW 17 19 9 10 - - -
17/07:00am - - - - - NNW 19 24 10 13 - - -
17/06:30am - - - - - N 20 22 11 12 - - -
17/06:00am - - - - - N 24 28 13 15 - - -
17/05:30am - - - - - N 28 30 15 16 - - -
17/05:00am - - - - - N 30 33 16 18 - - -
17/04:30am - - - - - N 30 35 16 19 - - -
17/04:00am - - - - - N 32 37 17 20 - - -
17/03:30am - - - - - NE 28 33 15 18 - - -
17/03:00am - - - - - NE 32 35 17 19 - - -
17/02:30am - - - - - NE 32 35 17 19 - - -
17/02:00am - - - - - NE 33 37 18 20 - - -
17/01:30am - - - - - NNE 33 39 18 21 - - -
17/01:00am - - - - - NNE 30 35 16 19 - - -
17/12:30am - - - - - N 28 33 15 18 - - -
17/12:00am - - - - - N 32 39 17 21 - - -
 
Date/Time
EST
Temp
°C
App
Temp
°C
Dew
Point
Rel
Hum
%
Delta-T
°C
Wind Press
QNH
hPa
Press
MSL
hPa
Rain
since 9 am
mm
Dir
 
Spd
km/h
Gust
km/h
Spd
kts
Gust
kts
16/11:30pm - - - - - NNW 30 35 16 19 - - -
16/11:00pm - - - - - N 32 37 17 20 - - -
16/10:30pm - - - - - NE 35 43 19 23 - - -
16/10:00pm - - - - - NE 35 41 19 22 - - -
16/09:30pm - - - - - NE 32 37 17 20 - - -
16/09:00pm - - - - - NE 32 35 17 19 - - -
16/08:30pm - - - - - NE 30 35 16 19 - - -
16/08:00pm - - - - - NE 41 50 22 27 - - -
16/07:30pm - - - - - NE 37 46 20 25 - - -
16/07:08pm - - - - - NE 39 44 21 24 - - -
16/07:00pm - - - - - N 35 41 19 22 - - -
16/06:58pm - - - - - N 37 41 20 22 - - -
16/06:48pm - - - - - NE 37 41 20 22 - - -
16/06:42pm - - - - - N 37 46 20 25 - - -
16/06:30pm - - - - - NW 33 61 18 33 - - -
16/06:28pm - - - - - NW 33 61 18 33 - - -
16/06:18pm - - - - - NNW 30 32 16 17 - - -
16/06:05pm - - - - - N 41 46 22 25 - - -
16/06:00pm - - - - - NE 44 54 24 29 - - -
16/05:30pm - - - - - NE 33 39 18 21 - - -
16/05:00pm - - - - - NE 43 50 23 27 - - -
16/04:30pm - - - - - NE 41 48 22 26 - - -
16/04:00pm - - - - - NE 39 46 21 25 - - -
16/03:30pm - - - - - NE 39 48 21 26 - - -
16/03:14pm - - - - - NE 54 63 29 34 - - -
16/03:12pm - - - - - N 48 70 26 38 - - -
16/03:08pm - - - - - N 43 48 23 26 - - -
16/03:06pm - - - - - N 41 46 22 25 - - -
16/03:00pm - - - - - NE 41 46 22 25 - - -
16/02:30pm - - - - - NE 41 48 22 26 - - -
16/02:00pm - - - - - NE 41 48 22 26 - - -
16/01:30pm - - - - - NE 37 44 20 24 - - -
16/01:00pm - - - - - NE 37 44 20 24 - - -
16/12:30pm - - - - - NE 35 41 19 22 - - -
16/12:00pm - - - - - NE 33 41 18 22 - - -
16/11:30am - - - - - NE 32 37 17 20 - - -
16/11:00am - - - - - NE 26 32 14 17 - - -
16/10:30am - - - - - NE 20 22 11 12 - - -
16/10:00am - - - - - N 19 22 10 12 - - -
16/09:30am - - - - - NE 24 28 13 15 - - -
16/09:00am - - - - - NE 22 26 12 14 - - -
16/08:30am - - - - - NE 22 24 12 13 - - -
16/08:00am - - - - - N 20 24 11 13 - - -
16/07:30am - - - - - N 20 22 11 12 - - -
16/07:00am - - - - - N 20 24 11 13 - - -
16/06:30am - - - - - N 20 22 11 12 - - -
16/06:00am - - - - - NNW 19 22 10 12 - - -
16/05:30am - - - - - N 20 22 11 12 - - -
16/05:00am - - - - - N 22 24 12 13 - - -
16/04:30am - - - - - NNE 24 26 13 14 - - -
16/04:00am - - - - - NE 24 28 13 15 - - -
16/03:30am - - - - - N 24 28 13 15 - - -
16/03:00am - - - - - N 24 28 13 15 - - -
16/02:30am - - - - - N 24 28 13 15 - - -
16/02:00am - - - - - N 26 30 14 16 - - -
16/01:30am - - - - - N 28 32 15 17 - - -
16/01:00am - - - - - N 26 30 14 16 - - -
16/12:30am - - - - - N 26 32 14 17 - - -
16/12:00am - - - - - N 26 30 14 16 - - -
 
Date/Time
EST
Temp
°C
App
Temp
°C
Dew
Point
Rel
Hum
%
Delta-T
°C
Wind Press
QNH
hPa
Press
MSL
hPa
Rain
since 9 am
mm
Dir
 
Spd
km/h
Gust
km/h
Spd
kts
Gust
kts
15/11:30pm - - - - - N 28 33 15 18 - - -
15/11:00pm - - - - - N 28 32 15 17 - - -
15/10:30pm - - - - - N 24 30 13 16 - - -
15/10:00pm - - - - - NE 26 32 14 17 - - -
15/09:30pm - - - - - NE 26 30 14 16 - - -
15/09:00pm - - - - - NE 26 30 14 16 - - -
15/08:30pm - - - - - NE 28 32 15 17 - - -
15/08:00pm - - - - - NE 28 32 15 17 - - -
15/07:30pm - - - - - NE 28 32 15 17 - - -
15/07:00pm - - - - - NE 28 32 15 17 - - -
15/06:30pm - - - - - NE 30 35 16 19 - - -
15/06:00pm - - - - - NE 28 33 15 18 - - -
15/05:30pm - - - - - NE 32 35 17 19 - - -
15/05:00pm - - - - - NE 33 39 18 21 - - -
15/04:30pm - - - - - NE 32 39 17 21 - - -
15/04:00pm - - - - - NE 32 39 17 21 - - -
15/03:30pm - - - - - NE 32 35 17 19 - - -
15/03:00pm - - - - - NE 30 35 16 19 - - -
15/02:30pm - - - - - NE 30 33 16 18 - - -
15/02:00pm - - - - - NE 28 32 15 17 - - -
15/01:30pm - - - - - NE 26 28 14 15 - - -
15/01:00pm - - - - - NE 22 24 12 13 - - -
15/12:30pm - - - - - NE 15 19 8 10 - - -
15/12:00pm - - - - - NE 13 15 7 8 - - -
15/11:30am - - - - - NE 7 9 4 5 - - -
15/11:00am - - - - - NE 7 9 4 5 - - -
15/10:30am - - - - - NE 6 9 3 5 - - -
15/10:00am - - - - - CALM 0 0 0 0 - - -
15/09:30am - - - - - CALM 0 0 0 0 - - -
15/09:00am - - - - - CALM 0 0 0 0 - - -
15/08:30am - - - - - SW 6 7 3 4 - - -
15/08:00am - - - - - SW 7 9 4 5 - - -
15/07:30am - - - - - WSW 7 9 4 5 - - -
15/07:00am - - - - - WSW 9 11 5 6 - - -
15/06:30am - - - - - WSW 11 11 6 6 - - -
15/06:00am - - - - - W 7 9 4 5 - - -
15/05:30am - - - - - WNW 6 9 3 5 - - -
15/05:00am - - - - - W 11 11 6 6 - - -
15/04:30am - - - - - NW 11 13 6 7 - - -
15/04:00am - - - - - NW 11 13 6 7 - - -
15/03:30am - - - - - WNW 11 13 6 7 - - -
15/03:00am - - - - - WNW 9 11 5 6 - - -
15/02:30am - - - - - WNW 9 13 5 7 - - -
15/02:00am - - - - - WNW 11 15 6 8 - - -
15/01:30am - - - - - WNW 13 13 7 7 - - -
15/01:00am - - - - - NW 13 15 7 8 - - -
15/12:30am - - - - - NW 11 13 6 7 - - -
15/12:00am - - - - - NW 11 13 6 7 - - -
 
Date/Time
EST
Temp
°C
App
Temp
°C
Dew
Point
Rel
Hum
%
Delta-T
°C
Wind Press
QNH
hPa
Press
MSL
hPa
Rain
since 9 am
mm
Dir
 
Spd
km/h
Gust
km/h
Spd
kts
Gust
kts
14/11:30pm - - - - - NW 9 11 5 6 - - -
14/11:00pm - - - - - NNE 11 15 6 8 - - -
14/10:30pm - - - - - NE 13 15 7 8 - - -
14/10:00pm - - - - - NE 11 13 6 7 - - -
14/09:30pm - - - - - NE 15 17 8 9 - - -
14/09:00pm - - - - - NE 15 19 8 10 - - -
14/08:30pm - - - - - NE 15 19 8 10 - - -
14/08:00pm - - - - - NE 13 15 7 8 - - -
14/07:30pm - - - - - NE 13 17 7 9 - - -
14/07:00pm - - - - - NE 13 17 7 9 - - -
14/06:30pm - - - - - NE 15 19 8 10 - - -
14/06:00pm - - - - - NE 17 20 9 11 - - -
14/05:30pm - - - - - ENE 17 20 9 11 - - -
14/05:00pm - - - - - ENE 19 20 10 11 - - -
14/04:30pm - - - - - ENE 17 20 9 11 - - -
14/04:00pm - - - - - NE 11 13 6 7 - - -
14/03:30pm - - - - - NE 13 15 7 8 - - -
14/03:00pm - - - - - NE 11 13 6 7 - - -
14/02:30pm - - - - - NE 6 9 3 5 - - -
14/02:00pm - - - - - NE 4 6 2 3 - - -
14/01:30pm - - - - - NE 4 6 2 3 - - -
14/01:00pm - - - - - ENE 4 7 2 4 - - -
14/12:30pm - - - - - CALM 0 4 0 2 - - -
14/12:00pm - - - - - CALM 0 0 0 0 - - -
14/11:30am - - - - - CALM 0 0 0 0 - - -
14/11:00am - - - - - SSW 4 4 2 2 - - -
14/10:30am - - - - - SSW 7 9 4 5 - - -
14/10:00am - - - - - SW 9 11 5 6 - - -
14/09:30am - - - - - SSW 11 13 6 7 - - -

Other Formats:

Comma delimited format used in spreadsheet applications
http://www.bom.gov.au/fwo/IDQ60801/IDQ60801.94590.axf

JavaScript Object Notation format (JSON) in row-major order
http://www.bom.gov.au/fwo/IDQ60801/IDQ60801.94590.json